Location: Unspecified
(0.0000°N, 0.0000°E)
Time: 22:47:24
(UTC+00:00)

S-56A Canister/Altair - Visible Passes

Search period start: 01 October 2020 00:00
Search period end: 11 October 2020 00:00
Orbit: 632 x 2500 km, 38.9° (Epoch: 01 October)

Date Brightness Start Highest point End Pass type
(mag) Time Alt. Az. Time Alt. Az. Time Alt. Az.
01 Oct 10.4 20:09:20 10° NNW 20:13:21 19° N 20:13:21 19° N visible
02 Oct 10.2 19:36:06 10° NNW 19:42:39 20° NNE 19:42:39 20° NNE visible
03 Oct 10.2 19:02:51 10° NNW 19:09:56 19° NNE 19:12:02 17° NE visible
03 Oct 10.6 21:06:54 10° NW 21:09:29 19° NW 21:09:29 19° NW visible
04 Oct 10.3 18:29:34 10° N 18:36:32 17° NNE 18:41:30 12° ENE visible
04 Oct 10.0 20:33:25 10° NW 20:38:57 32° NNW 20:38:57 32° NNW visible
05 Oct 9.3 19:59:54 10° NW 20:08:31 46° N 20:08:31 46° N visible
06 Oct 9.1 19:26:22 10° NNW 19:37:17 46° NE 19:38:11 45° NE visible
06 Oct 10.8 21:33:34 10° WNW 21:35:40 16° WNW 21:35:40 16° WNW visible
07 Oct 9.4 18:52:49 10° NNW 19:04:04 41° NE 19:07:55 29° E visible
07 Oct 10.1 20:59:38 10° WNW 21:05:25 32° W 21:05:25 32° W visible
08 Oct 9.8 18:19:18 10° NNW 18:30:46 37° NE 18:37:46 15° E visible
08 Oct 9.2 20:25:43 10° WNW 20:35:16 58° WSW 20:35:16 58° WSW visible
09 Oct 8.9 19:51:51 10° NW 20:03:29 74° SW 20:05:12 60° SSE visible
10 Oct 9.0 19:17:59 10° NW 19:30:27 86° SW 19:35:13 32° SE visible
10 Oct 10.8 21:29:04 10° W 21:32:44 16° WSW 21:32:44 16° WSW visible
